#timestamp,LO_Frequency,Hit,StdDev 
1532829615.4,286047000.2,N
1532829635.2,286047000.2,N
1532829655.0,286047002.4,N
1532829655.9,286047002.4,N
1532829675.8,286046999.8,N
1532829695.6,286046999.7,N
1532829715.5,286047002.4,N
1532829735.3,286047002.3,N
1532829755.1,286047002.7,N
1532829775.9,286047002.2,N
1532829795.7,286047002.5,N
1532829815.5,286047002.4,N
1532829835.4,286047002.8,N
1532829855.2,286047002.2,N
1532829875.0,286047002.7,N
1532829876.0,286047002.7,N
1532829895.8,286047002.8,N
1532829915.6,286047002.2,N
1532829935.5,286047002.0,N
1532829955.3,286047001.5,N
1532829975.1,286047002.0,N
1532829995.9,286047002.1,N
1532830015.7,286047004.4,Y
1532830035.6,286047002.6,P
1532830055.4,286047000.1,N
1532830075.2,286047000.4,N
1532830095.1,286047000.3,N
1532830096.0,286047000.3,N
1532830115.8,286046999.7,N
1532830135.6,286047002.2,N
1532830155.5,286047001.9,N
1532830175.3,286047002.6,N
1532830195.2,286047002.6,N
1532830215.9,286047001.5,N
1532830235.7,286047002.0,N
1532830255.6,286047001.5,N
1532830275.4,286047004.2,Y
1532830295.3,286047002.8,P
1532830315.1,286047002.6,P
1532830316.0,286047002.6,P
1532830335.8,286046999.7,N
1532830355.7,286046999.8,N
1532830375.5,286047002.3,N
1532830395.4,286047002.4,N
1532830415.2,286046999.7,N
1532830435.0,286046999.9,N
1532830435.9,286046999.9,N
1532830455.8,286047000.4,N
1532830475.6,286047002.3,N
1532830495.5,286047000.2,N
1532830515.3,286047002.7,N
1532830535.1,286047002.6,N
1532830555.9,286047002.3,N
1532830575.7,286047000.1,N
1532830595.5,286046999.9,N
1532830615.4,286046999.9,N
1532830635.2,286047000.1,N
1532830655.0,286047002.3,N
1532830656.0,286047002.3,N
1532830675.8,286047000.2,N
1532830695.6,286046999.9,N
1532830715.5,286047000.5,N
1532830735.3,286047000.4,N
1532830755.1,286047000.1,N
1532830775.9,286047002.8,N
1532830795.7,286047000.2,N
1532830815.2,286047002.6,N
1532830835.0,286047002.6,N
1532830835.9,286047002.6,N
1532830855.8,286047002.4,N
1532830875.6,286047002.5,N
1532830895.4,286047002.4,N
1532830915.3,286047002.3,N
1532830935.1,286047002.4,N
1532830955.8,286047002.3,N
1532830975.7,286047001.9,N
1532830995.5,286047002.1,N
1532831015.4,286047002.6,N
1532831035.2,286047002.5,N
1532831055.0,286047002.6,N
1532831055.9,286047002.6,N
1532831075.8,286047002.2,N
1532831095.6,286047002.0,N
1532831115.4,286047002.8,N
1532831135.3,286046999.7,N
1532831155.1,286046999.7,N
1532831175.9,286047002.6,N
1532831195.7,286047002.6,N
1532831215.5,286047002.1,N
1532831235.4,286047001.6,N
1532831255.2,286047001.8,N
1532831275.0,286047002.2,N
1532831275.9,286047002.2,N
1532831295.8,286047001.9,N
1532831315.6,286047001.4,N
1532831335.5,286047001.7,N
1532831355.3,286047001.9,N
1532831375.1,286047001.9,N
1532831395.9,286047001.4,N
1532831415.7,286047001.7,N
1532831435.5,286047001.6,N
1532831455.4,286047001.8,N
1532831475.2,286047001.8,N
1532831495.1,286047001.7,N
1532831496.0,286047001.7,N
1532831515.8,286047002.8,Y
1532831535.6,286047000.6,P
1532831555.5,286047000.3,N
1532831575.3,286047000.6,N
1532831595.1,286047000.3,N
1532831615.9,286047000.9,N
1532831635.7,286047002.8,Y
1532831655.6,286047000.3,P
1532831675.4,286047000.9,P
1532831695.2,286047000.4,N
1532831715.1,286047001.0,Y
1532831716.0,286047001.0,P
1532831735.8,286046998.4,P
1532831755.7,286046998.6,N
1532831775.5,286046999.0,N
1532831795.3,286046998.9,N
1532831815.2,286046998.5,N
1532831835.0,286046998.4,N
1532831835.9,286046998.4,N
1532831855.7,286047001.2,N
1532831875.6,286046998.5,N
1532831895.4,286047000.9,N
1532831915.3,286047000.6,N
1532831935.1,286047001.0,N
1532831936.0,286047001.0,N
1532831955.8,286047000.7,N
1532831975.7,286047000.9,N
1532831995.5,286047000.0,N
1532832015.4,286047000.8,N
1532832035.2,286046998.5,N
1532832055.0,286046998.8,N
1532832055.9,286046998.8,N
1532832075.8,286047000.6,N
1532832095.6,286047000.7,N
1532832115.4,286046998.1,N
1532832135.3,286047001.2,N
1532832155.1,286047001.0,N
1532832175.9,286047000.7,N
1532832195.7,286047001.1,N
1532832215.5,286047000.9,N
1532832235.4,286047000.8,N
1532832255.2,286047000.9,N
1532832275.1,286047000.6,N
1532832276.0,286047000.6,N
1532832295.8,286047000.4,N
1532832315.6,286047000.6,N
1532832335.5,286047000.5,N
1532832355.3,286047000.5,N
1532832375.1,286046999.9,N
1532832395.9,286046999.9,N
1532832415.7,286047000.2,N
1532832435.6,286046999.7,N
1532832455.4,286047002.4,N
1532832475.3,286047000.0,N
1532832495.1,286047000.6,N
1532832496.0,286047000.6,N
1532832515.8,286046999.9,N
1532832535.7,286047000.7,N
1532832555.5,286047000.8,N
1532832575.3,286046998.8,N
1532832595.2,286046998.3,N
1532832615.0,286046998.5,N
1532832615.9,286046998.5,N
1532832635.8,286046996.5,Y
1532832655.6,286046999.6,P
1532832675.4,286046996.7,P
1532832695.3,286046997.3,N
1532832715.1,286046996.7,N
1532832735.9,286046996.9,N
1532832755.7,286046996.8,N
1532832775.5,286046995.0,Y
1532832795.4,286046998.8,P
1532832815.2,286046996.5,P
1532832835.0,286046997.5,N
1532832835.9,286046997.5,Y
1532832855.8,286046998.3,P
1532832875.9,286046998.9,P
1532832895.7,286046998.1,P
1532832915.6,286046998.1,Y
1532832935.4,286047000.7,P
1532832955.2,286047000.9,N
1532832975.1,286047000.7,N
1532832976.0,286047000.7,N
1532832995.8,286046998.1,N
1532833015.6,286047001.0,N
1532833035.5,286046998.4,N
1532833055.3,286046999.1,N
1532833075.2,286046996.9,N
1532833095.9,286046996.6,N
1532833115.7,286046996.7,N
1532833135.6,286046997.0,N
1532833155.4,286046999.3,N
1532833175.3,286046996.9,N
1532833195.1,286046996.8,N
1532833196.0,286046996.8,N
